Location: Antioch Baptist Church
(32.6696°N, 85.7327°W)
Time: 21:05:42
(UTC+00:00)

SL-19 R/B - Pass Details

Date: 14 July 2020
Orbit: 358 x 810 km, 99.4° (Epoch: 12 August)

Event Time Altitude Azimuth Distance (km) Brightness Sun altitude
Rises 09:03:04 0° 12° (NNE) 2,267 8.4 -18.6°
Reaches altitude 10° 09:04:56 10° 12° (NNE) 1,448 7.3 -18.4°
Maximum altitude 09:07:59 83° 285° (WNW) 435 3.7 -17.9°
Enters shadow 09:08:45 50° 203° (SSW) 560 3.9 -17.8°
